SL-16 DEB

Satellite information

Favourite Embed

Satellite Type and Status

DEBRISIN ORBIT

Key statistics

Satellite SL-16 DEB at a glance.

Uptime

11183

Days in orbit

Revolutions

≈ 13.7

Per day

Orbit

LEO

Low Earth Orbit

Inclination

71.0

Latest

Satellite identification and parameters

Extended collection of information and parameters for SL-16 DEB.

Object identification

Identified? True

Debris? True

Object name: SL-16 DEB

International designator: 1994-077E

Object number (NORAD): 23408

Object ID (CCSDS): 23408

Country: COMMONWEALTH OF INDEPENDENT STATES (CIS)

Current information (Y/N): Y

RCS size: SMALL

Orbital parameters

Period: 105.014 minutes

Inclination: 70.9855 deg

SMA: 7373.258 km

Apoapsis: 1151.867 km

Periapsis: 838.38 km

RAAN: 33.3502 deg

Eccentricy: 0.0212584

Argument of periapsis: 159.7769 deg

Mean anomaly: 268.8804 deg

Mean motion: 13.71240371 rev/day

Mean motion (dot): 0.00000037 rev/day2

B* drag term: 0.000074891 1/REarth

Two-line elements (TLE)

Creation date: July 6, 2025, 6:05 p.m.

Reference frame: TEME

Reference center: EARTH

Epoch: July 6, 2025, 2:39 p.m. UTC

TLE line 0: 0 SL-16 DEB

TLE line 1: 1 23408U 94077E 25187.61080941 .00000037 00000-0 74891-4 0 9999

TLE line 2: 2 23408 70.9855 33.3502 0212584 159.7769 268.8804 13.71240371531346

Live tracking on map

Real-time ground track for satellite SL-16 DEB.

In-orbit conjunctions

A list of the most updated potential collisions computed for object SL-16 DEB.

Target Orbit TCA Probability of collision Miss distance Type
DELTA 1 DEB SSO 2025-07-02 15:28:39 0.0004210955 198.0 (m) DEBRIS
DMSP 5D-2 F13 DEB SSO 2025-03-13 06:21:24 0.000635161 39.0 (m) DEBRIS

Associated space launch

Second generation ELING satellite

SL-16 DEB was lifted into orbit during the mission ‘Zenit-2 | Tselina-2 16’, on board a Zenit-2 space rocket.

The launch took place on Nov. 24, 1994, 9:15 a.m. from 45/1.

For more information about the launch, click the button.

Launch to space Zenit-2 | Tselina-2 16
Zenit-2 | Tselina-2 16

Agency: N/A

Status: Launch Successful

Launch date: Nov. 24, 1994, 9:15 a.m. UTC

Rocket: Zenit-2

Launch pad: 45/1

Location: Baikonur Cosmodrome, Republic of Kazakhstan

...

Latest news about this satellite

There are no fresh news available about this satellite. Check back as we update our databases every day.


Newsletter sign-up

Weekly statistics, charts and insights to help you stay on top of the space industry.